カタログに戻る

FENGYUN 1C DEB

運用中SSO
NORAD 31819·DEBRIS·🇨🇳 China

打ち上げ May 10, 1999 から Taiyuan Satellite Launch Center

Loading…

次のパス (今後24時間)

TLE

経年Source: Space-Track

元期: Sep 9, 2026, 18:35 UTC

1 31819U 99025CHH 26252.77463409  .00000426  00000-0  17283-3 0  9990
2 31819  98.4939 242.4795 0085586 239.9709 119.2963 14.30633680  5527

AllMySatでFENGYUN 1C DEBをリアルタイム追跡

Download on the App Store